Location: Charbonni�res
(45.9952°N, 2.9982°E)
Time: 17:38:04
(UTC+00:00)

Cosmos 1943 - Pass Details

Date: 29 November 2020
Orbit: 832 x 851 km, 71.0° (Epoch: 23 January)

Event Time Altitude Azimuth Distance (km) Brightness Sun altitude
Exits shadow 05:18:29 25° 247° (WSW) 1,671 4.3 -18.3°
Drops below altitude 10° 05:22:21 10° 205° (SSW) 2,470 5.5 -17.7°
Sets 05:25:11 0° 192° (SSW) 3,399 6.4 -17.2°
